EWG3X EDDL-LIPE

Flight info

Callsign EWG3X
Flight time 1h 13m
Altitude 35000
Route DODEN Y852 TUSUK DCT ULNOK L607 ABUKA DCT BATUB DCT TIRUL M738 NATAG DCT LORLO DCT UNTAD DCT NEGIK DCT ADOSA M738 BENUS
Aircraft A320/M-SDE2E3FGIRWXY/HB1

Departure

Time 2026-05-01 12:26
Airport Düsseldorf Airport (EDDL)

Arrival

Time 2026-05-01 13:39
Airport Bologna Guglielmo Marconi Airport (LIPE)
Time Latitude Longitude Altitude Speed Heading
2026-05-01 12:07 51.28057 6.76287 153 ft 0 kts 185°
2026-05-01 12:16 51.28063 6.76288 153 ft 2 kts 185°
2026-05-01 12:17 51.28078 6.76290 153 ft 2 kts 185°
2026-05-01 12:17 51.28092 6.76292 153 ft 2 kts 185°
2026-05-01 12:17 51.28108 6.76295 153 ft 2 kts 186°
2026-05-01 12:17 51.28122 6.76297 153 ft 2 kts 186°
2026-05-01 12:18 51.28137 6.76292 153 ft 2 kts 143°
2026-05-01 12:18 51.28146 6.76273 153 ft 2 kts 107°
2026-05-01 12:18 51.28147 6.76249 153 ft 2 kts 71°
2026-05-01 12:18 51.28138 6.76229 153 ft 2 kts 46°
2026-05-01 12:19 51.28130 6.76211 153 ft 0 kts 55°
2026-05-01 12:19 51.28129 6.76209 153 ft 0 kts 54°
2026-05-01 12:21 51.28130 6.76211 153 ft 1 kts 54°
2026-05-01 12:21 51.28146 6.76245 153 ft 6 kts 47°
2026-05-01 12:21 51.28199 6.76241 153 ft 10 kts 345°
2026-05-01 12:21 51.28271 6.76319 153 ft 15 kts 53°
2026-05-01 12:22 51.28344 6.76473 153 ft 19 kts 52°
2026-05-01 12:22 51.28432 6.76658 153 ft 22 kts 53°
2026-05-01 12:22 51.28534 6.76873 153 ft 25 kts 53°
2026-05-01 12:22 51.28648 6.77112 153 ft 28 kts 53°
2026-05-01 12:23 51.28772 6.77370 153 ft 29 kts 53°
2026-05-01 12:23 51.28892 6.77624 154 ft 28 kts 53°
2026-05-01 12:23 51.29010 6.77871 154 ft 27 kts 53°
2026-05-01 12:23 51.29122 6.78108 154 ft 26 kts 52°
2026-05-01 12:24 51.29234 6.78340 154 ft 25 kts 53°
2026-05-01 12:24 51.29327 6.78534 154 ft 13 kts 46°
2026-05-01 12:24 51.29413 6.78571 154 ft 13 kts 360°
2026-05-01 12:24 51.29496 6.78550 154 ft 10 kts 330°
2026-05-01 12:25 51.29510 6.78452 154 ft 10 kts 237°
2026-05-01 12:25 51.29052 6.77492 154 ft 118 kts 233°
2026-05-01 12:25 51.28437 6.76199 164 ft 171 kts 231°
2026-05-01 12:26 51.27748 6.74700 772 ft 169 kts 229°
2026-05-01 12:26 51.26340 6.71669 2005 ft 174 kts 227°
2026-05-01 12:26 51.25579 6.70060 2359 ft 189 kts 227°
2026-05-01 12:27 51.24754 6.68318 2702 ft 206 kts 228°
2026-05-01 12:27 51.22807 6.64510 3334 ft 240 kts 212°
2026-05-01 12:28 51.19505 6.63767 4429 ft 253 kts 171°
2026-05-01 12:28 51.17758 6.64085 5214 ft 256 kts 172°
2026-05-01 12:28 51.14430 6.65810 6761 ft 261 kts 138°
2026-05-01 12:29 51.13345 6.68086 7551 ft 264 kts 122°
2026-05-01 12:29 51.12419 6.70606 8339 ft 267 kts 122°
2026-05-01 12:29 51.10537 6.75705 9912 ft 272 kts 121°
2026-05-01 12:30 51.08580 6.81001 11112 ft 290 kts 121°
2026-05-01 12:30 51.07535 6.83822 11510 ft 305 kts 121°
2026-05-01 12:30 51.06448 6.86754 12161 ft 311 kts 121°
2026-05-01 12:31 51.05352 6.89710 12855 ft 314 kts 121°
2026-05-01 12:31 51.04242 6.92696 13517 ft 317 kts 121°
2026-05-01 12:31 51.03125 6.95704 14164 ft 321 kts 121°
2026-05-01 12:31 51.01989 6.98757 14806 ft 324 kts 121°
2026-05-01 12:32 51.00835 7.01857 15435 ft 328 kts 121°
2026-05-01 12:32 50.98501 7.08103 16623 ft 335 kts 121°
2026-05-01 12:32 50.97309 7.11289 17200 ft 339 kts 121°
2026-05-01 12:33 50.96096 7.14524 17771 ft 342 kts 121°
2026-05-01 12:33 50.94892 7.17746 18336 ft 345 kts 120°
2026-05-01 12:33 50.93677 7.21006 18889 ft 348 kts 120°
2026-05-01 12:33 50.92440 7.24324 19419 ft 351 kts 120°
2026-05-01 12:34 50.91184 7.27691 19942 ft 355 kts 120°
2026-05-01 12:34 50.89935 7.31030 20449 ft 358 kts 120°
2026-05-01 12:34 50.88663 7.34431 20956 ft 361 kts 120°
2026-05-01 12:34 50.87371 7.37877 21458 ft 365 kts 120°
2026-05-01 12:35 50.86079 7.41316 21938 ft 368 kts 120°
2026-05-01 12:35 50.84772 7.44790 22419 ft 371 kts 119°
2026-05-01 12:35 50.83452 7.48294 22891 ft 374 kts 119°
2026-05-01 12:35 50.82120 7.51823 23356 ft 377 kts 119°
2026-05-01 12:36 50.80773 7.55390 23807 ft 380 kts 119°
2026-05-01 12:36 50.79406 7.59010 24252 ft 383 kts 119°
2026-05-01 12:36 50.78059 7.62578 24672 ft 386 kts 119°
2026-05-01 12:36 50.76677 7.66235 25095 ft 389 kts 120°
2026-05-01 12:37 50.75295 7.69887 25493 ft 391 kts 120°
2026-05-01 12:37 50.73885 7.73606 25891 ft 394 kts 120°
2026-05-01 12:37 50.72478 7.77311 26272 ft 397 kts 120°
2026-05-01 12:37 50.71061 7.81037 26645 ft 399 kts 120°
2026-05-01 12:38 50.69629 7.84795 27012 ft 402 kts 120°
2026-05-01 12:38 50.68191 7.88563 27370 ft 404 kts 120°
2026-05-01 12:38 50.66745 7.92347 27716 ft 407 kts 120°
2026-05-01 12:38 50.65284 7.96161 28035 ft 410 kts 120°
2026-05-01 12:39 50.63811 8.00007 28354 ft 413 kts 120°
2026-05-01 12:39 50.62260 8.03866 28647 ft 417 kts 126°
2026-05-01 12:39 50.60210 8.07053 28907 ft 423 kts 143°
2026-05-01 12:39 50.57605 8.09243 29212 ft 427 kts 159°
2026-05-01 12:40 50.54727 8.10220 29503 ft 431 kts 173°
2026-05-01 12:40 50.51725 8.10607 29808 ft 433 kts 175°
2026-05-01 12:40 50.48739 8.10943 30069 ft 435 kts 175°
2026-05-01 12:40 50.45702 8.11296 30352 ft 437 kts 174°
2026-05-01 12:41 50.42672 8.11666 30626 ft 439 kts 174°
2026-05-01 12:41 50.39622 8.12052 30890 ft 441 kts 174°
2026-05-01 12:41 50.36557 8.12447 31156 ft 442 kts 174°
2026-05-01 12:41 50.33527 8.12841 31406 ft 444 kts 174°
2026-05-01 12:42 50.30415 8.13246 31645 ft 445 kts 174°
2026-05-01 12:42 50.27327 8.13649 31887 ft 447 kts 174°
2026-05-01 12:42 50.24245 8.14050 32125 ft 448 kts 174°
2026-05-01 12:42 50.21156 8.14519 32351 ft 449 kts 172°
2026-05-01 12:43 50.18072 8.15317 32564 ft 450 kts 167°
2026-05-01 12:43 50.15007 8.16488 32780 ft 451 kts 163°
2026-05-01 12:43 50.12032 8.18011 33039 ft 451 kts 158°
2026-05-01 12:43 50.09157 8.19873 33341 ft 449 kts 154°
2026-05-01 12:44 50.06377 8.22069 33634 ft 447 kts 149°
2026-05-01 12:44 50.03733 8.24481 33858 ft 447 kts 148°
2026-05-01 12:44 49.98393 8.29457 34226 ft 449 kts 148°
2026-05-01 12:45 49.92998 8.34445 34585 ft 451 kts 148°
2026-05-01 12:45 49.90303 8.36923 34775 ft 452 kts 148°
2026-05-01 12:45 49.87643 8.39503 34957 ft 452 kts 145°
2026-05-01 12:46 49.85087 8.42296 35127 ft 453 kts 142°
2026-05-01 12:46 49.82640 8.45306 35274 ft 453 kts 138°
2026-05-01 12:46 49.77952 8.51919 35277 ft 454 kts 137°
2026-05-01 12:47 49.72858 8.57557 35284 ft 455 kts 149°
2026-05-01 12:47 49.67107 8.61628 35287 ft 456 kts 160°
2026-05-01 12:48 49.60962 8.63982 35292 ft 456 kts 169°
2026-05-01 12:48 49.54732 8.65671 35297 ft 457 kts 170°
2026-05-01 12:49 49.48513 8.67592 35299 ft 457 kts 165°
2026-05-01 12:49 49.42458 8.70503 35299 ft 456 kts 159°
2026-05-01 12:50 49.36615 8.74162 35296 ft 456 kts 157°
2026-05-01 12:50 49.30779 8.77834 35293 ft 456 kts 157°
2026-05-01 12:51 49.24923 8.81503 35286 ft 456 kts 157°
2026-05-01 12:52 49.16104 8.87008 35282 ft 456 kts 157°
2026-05-01 12:52 49.07313 8.92472 35281 ft 457 kts 157°
2026-05-01 12:53 48.98509 8.97925 35284 ft 456 kts 157°
2026-05-01 12:54 48.92627 9.01555 35283 ft 457 kts 156°
2026-05-01 12:54 48.83825 9.06971 35284 ft 457 kts 156°
2026-05-01 12:55 48.74962 9.12405 35290 ft 457 kts 156°
2026-05-01 12:56 48.69087 9.15996 35293 ft 458 kts 156°
2026-05-01 12:56 48.63179 9.19596 35295 ft 458 kts 156°
2026-05-01 12:57 48.57296 9.23171 35292 ft 458 kts 156°
2026-05-01 12:57 48.48460 9.28525 35286 ft 458 kts 156°
2026-05-01 12:58 48.42511 9.32120 35281 ft 458 kts 156°
2026-05-01 12:59 48.33661 9.37450 35280 ft 459 kts 156°
2026-05-01 12:59 48.24792 9.42769 35279 ft 459 kts 156°
2026-05-01 13:00 48.15897 9.48086 35279 ft 459 kts 156°
2026-05-01 13:01 48.07018 9.53380 35278 ft 460 kts 155°
2026-05-01 13:02 47.98520 9.59913 35276 ft 457 kts 145°
2026-05-01 13:07 47.40745 10.18249 35317 ft 458 kts 143°
2026-05-01 13:08 47.35456 10.23515 35325 ft 459 kts 143°
2026-05-01 13:08 47.30185 10.28749 35335 ft 459 kts 142°
2026-05-01 13:09 47.24899 10.33987 35351 ft 459 kts 142°
2026-05-01 13:09 47.19598 10.39224 35355 ft 459 kts 142°
2026-05-01 13:10 47.14325 10.44420 35358 ft 458 kts 142°
2026-05-01 13:10 47.08971 10.49435 35356 ft 461 kts 147°
2026-05-01 13:11 47.03215 10.53622 35357 ft 464 kts 154°
2026-05-01 13:11 46.97118 10.56804 35362 ft 466 kts 159°
2026-05-01 13:12 46.90921 10.59574 35357 ft 467 kts 159°
2026-05-01 13:12 46.84717 10.62374 35348 ft 467 kts 159°
2026-05-01 13:13 46.78561 10.65143 35347 ft 467 kts 160°
2026-05-01 13:13 46.72313 10.67882 35330 ft 469 kts 162°
2026-05-01 13:14 46.65958 10.70030 35333 ft 471 kts 165°
2026-05-01 13:14 46.59549 10.72121 35324 ft 470 kts 164°
2026-05-01 13:15 46.53185 10.74195 35323 ft 470 kts 164°
2026-05-01 13:15 46.46775 10.76282 35326 ft 471 kts 164°
2026-05-01 13:16 46.40418 10.78344 35318 ft 471 kts 165°
2026-05-01 13:16 46.37233 10.79375 35188 ft 473 kts 165°
2026-05-01 13:16 46.33993 10.80420 34412 ft 475 kts 164°
2026-05-01 13:17 46.24360 10.83534 32231 ft 475 kts 165°
2026-05-01 13:17 46.21158 10.84564 31746 ft 469 kts 164°
2026-05-01 13:18 46.14844 10.86595 30798 ft 459 kts 164°
2026-05-01 13:18 46.11755 10.87587 30321 ft 455 kts 164°
2026-05-01 13:18 46.08682 10.88574 29837 ft 450 kts 165°
2026-05-01 13:18 46.05662 10.89542 29363 ft 446 kts 164°
2026-05-01 13:19 46.02658 10.90502 28895 ft 441 kts 164°
2026-05-01 13:19 45.99674 10.91456 28430 ft 436 kts 164°
2026-05-01 13:19 45.93847 10.93316 27513 ft 428 kts 164°
2026-05-01 13:20 45.90944 10.94241 27046 ft 424 kts 164°
2026-05-01 13:20 45.88089 10.95150 26589 ft 420 kts 164°
2026-05-01 13:20 45.85254 10.96051 26142 ft 416 kts 164°
2026-05-01 13:21 45.79656 10.97830 25257 ft 408 kts 163°
2026-05-01 13:21 45.76897 10.98705 24813 ft 405 kts 163°
2026-05-01 13:21 45.74173 10.99567 24371 ft 401 kts 163°
2026-05-01 13:21 45.71469 11.00424 23931 ft 398 kts 163°
2026-05-01 13:22 45.68758 11.01285 23489 ft 395 kts 163°
2026-05-01 13:22 45.66092 11.02128 23047 ft 392 kts 163°
2026-05-01 13:22 45.63458 11.02893 22618 ft 390 kts 166°
2026-05-01 13:22 45.60764 11.03554 22173 ft 388 kts 166°
2026-05-01 13:23 45.58140 11.04193 21733 ft 386 kts 166°
2026-05-01 13:23 45.55499 11.04832 21301 ft 384 kts 166°
2026-05-01 13:23 45.52858 11.05472 20866 ft 382 kts 166°
2026-05-01 13:23 45.50270 11.06098 20433 ft 379 kts 166°
2026-05-01 13:24 45.47691 11.06721 20001 ft 377 kts 166°
2026-05-01 13:24 45.45112 11.07346 19561 ft 376 kts 166°
2026-05-01 13:24 45.42524 11.07970 19124 ft 374 kts 166°
2026-05-01 13:25 45.37444 11.09195 18251 ft 371 kts 165°
2026-05-01 13:25 45.34891 11.09810 17817 ft 370 kts 165°
2026-05-01 13:25 45.32375 11.10416 17386 ft 368 kts 165°
2026-05-01 13:25 45.29875 11.11019 16944 ft 367 kts 165°
2026-05-01 13:26 45.27351 11.11628 16511 ft 365 kts 166°
2026-05-01 13:26 45.24863 11.12225 16093 ft 364 kts 166°
2026-05-01 13:26 45.22389 11.12818 15661 ft 362 kts 166°
2026-05-01 13:26 45.19903 11.13414 15242 ft 361 kts 166°
2026-05-01 13:27 45.17426 11.14007 14804 ft 360 kts 166°
2026-05-01 13:27 45.14957 11.14597 14365 ft 359 kts 165°
2026-05-01 13:27 45.10055 11.15771 13483 ft 356 kts 165°
2026-05-01 13:28 45.05201 11.16930 12615 ft 352 kts 166°
2026-05-01 13:28 45.02805 11.17499 12184 ft 350 kts 166°
2026-05-01 13:29 44.98048 11.18628 11331 ft 345 kts 166°
2026-05-01 13:29 44.93351 11.19744 10559 ft 336 kts 166°
2026-05-01 13:30 44.84661 11.21799 9669 ft 303 kts 165°
2026-05-01 13:31 44.80494 11.21406 8904 ft 309 kts 206°
2026-05-01 13:31 44.76629 11.14539 7874 ft 301 kts 243°
2026-05-01 13:32 44.74720 11.09369 7140 ft 295 kts 244°
2026-05-01 13:33 44.71996 11.01797 5509 ft 284 kts 244°
2026-05-01 13:33 44.69578 10.97669 4338 ft 275 kts 199°
2026-05-01 13:34 44.66020 10.98006 3241 ft 257 kts 144°
2026-05-01 13:34 44.63853 11.01665 2607 ft 237 kts 122°
2026-05-01 13:35 44.62077 11.05283 2479 ft 213 kts 118°
2026-05-01 13:35 44.61393 11.07052 2450 ft 198 kts 115°
2026-05-01 13:35 44.60278 11.10211 2488 ft 161 kts 114°
2026-05-01 13:36 44.59790 11.11575 2463 ft 158 kts 114°
2026-05-01 13:36 44.59292 11.12958 2360 ft 158 kts 113°
2026-05-01 13:36 44.58300 11.15694 1944 ft 157 kts 114°
2026-05-01 13:37 44.57805 11.17061 1739 ft 156 kts 114°
2026-05-01 13:37 44.57320 11.18398 1557 ft 149 kts 114°
2026-05-01 13:37 44.56862 11.19658 1336 ft 141 kts 112°
2026-05-01 13:37 44.56421 11.20882 1152 ft 141 kts 113°
2026-05-01 13:38 44.55540 11.23322 800 ft 141 kts 113°
2026-05-01 13:38 44.55100 11.24544 613 ft 142 kts 113°
2026-05-01 13:38 44.54657 11.25773 440 ft 140 kts 115°
2026-05-01 13:39 44.54221 11.26997 243 ft 138 kts 114°
2026-05-01 13:39 44.53782 11.28205 119 ft 134 kts 114°
2026-05-01 13:39 44.53433 11.29178 122 ft 81 kts 116°
2026-05-01 13:39 44.53251 11.29594 124 ft 37 kts 140°
2026-05-01 13:40 44.53126 11.29714 124 ft 15 kts 146°
2026-05-01 13:40 44.53057 11.29774 124 ft 8 kts 166°
2026-05-01 13:40 44.53035 11.29734 125 ft 6 kts 296°
2026-05-01 13:40 44.53056 11.29676 126 ft 6 kts 296°
2026-05-01 13:41 44.53077 11.29617 126 ft 7 kts 297°
2026-05-01 13:41 44.53106 11.29538 128 ft 10 kts 297°
2026-05-01 13:41 44.53142 11.29437 128 ft 13 kts 296°
2026-05-01 13:41 44.53189 11.29307 127 ft 15 kts 297°
2026-05-01 13:42 44.53202 11.29210 126 ft 9 kts 226°
2026-05-01 13:42 44.53142 11.29165 128 ft 9 kts 206°
2026-05-01 13:42 44.53090 11.29130 129 ft 6 kts 187°
2026-05-01 13:42 44.53068 11.29161 129 ft 4 kts 110°
2026-05-01 13:43 44.53054 11.29201 129 ft 3 kts 116°
2026-05-01 13:43 44.53053 11.29204 129 ft 0 kts 116°